Meteo Giornale » Osservazioni meteo Stati Uniti (USA) » Reedsville-Mifflin
ore: 05:55 - Osservazioni Meteo Reedsville-Mifflin
Lat. 40° 41' N Lon. 77° 38' W Alt. 250 metri s.l.m.
21 °C
Pioggia
Temp. 24 Ore
19 °C
28 °C
Nord
0 Km/h
Dew point 21 °C
Umidità 100 %
Visibilità 2 Km
Il sole sorge alle ore 06:37
Il sole tramonta alle ore 19:43
| Data e Ora | Cielo e Fenomeni | T °C | DP °C | Um. % | Pres. hPa | Vis. km | Vento km/h | |
|---|---|---|---|---|---|---|---|---|
| Oggi h: 05:55 | Pioggia | 21 | 21 | 100 | 1017 | 2 | N 0 | |
| Oggi h: 05:35 | Foschia | 21 | 21 | 100 | 1017 | 2 | N 0 | |
| Oggi h: 05:15 | Foschia | 21 | 21 | 100 | 1017 | 3 | N 0 | |
| Oggi h: 04:55 | Nebbia | 21 | 21 | 100 | 1017 | 2 | N 0 | |
| Oggi h: 04:35 | Nebbia | 21 | 21 | 100 | 1017 | 0 | N 0 | |
| Oggi h: 04:15 | Nebbia | 21 | 21 | 100 | 1017 | 0 | N 0 | |
| Oggi h: 03:55 | Nebbia | 21 | 21 | 100 | 1017 | 0 | N 0 | |
| Oggi h: 03:35 | Nebbia | 21 | 21 | 100 | 1017 | 0 | N 0 | |
| Oggi h: 03:15 | Nebbia | 21 | 21 | 100 | 1017 | 2 | N 0 | |
| Oggi h: 02:55 | Nebbia | 21 | 21 | 100 | 1017 | 2 | N 0 | |
| Oggi h: 02:35 | Nebbia | 21 | 21 | 100 | 1017 | 2 | N 0 | |
| Oggi h: 02:15 | Foschia | 21 | 21 | 100 | 1017 | 5 | N 0 | |
| Oggi h: 01:55 | Nebbia | 21 | 21 | 100 | 1017 | 0 | N 0 | |
| Oggi h: 01:35 | Nebbia | 21 | 21 | 100 | 1018 | 0 | N 0 | |
| Oggi h: 01:15 | Nebbia | 21 | 21 | 100 | 1018 | 0 | N 0 | |
| Oggi h: 00:55 | Foschia | 21 | 21 | 100 | 1018 | 2 | N 0 | |
| Oggi h: 00:35 | Foschia | 21 | 21 | 100 | 1018 | 5 | N 0 | |
| Oggi h: 00:15 | Foschia | 22 | 22 | 100 | 1018 | 6 | N 0 | |
| Ieri h: 23:55 | Foschia | 22 | 22 | 100 | 1018 | 6 | N 0 | |
| Ieri h: 23:35 | Foschia | 22 | 22 | 100 | 1018 | 6 | N 0 | |
| Ieri h: 23:15 | Foschia | 23 | 22 | 94 | 1018 | 10 | N 0 | |
| Ieri h: 22:55 | Foschia | 23 | 22 | 94 | 1018 | 10 | N 0 | |
| Ieri h: 22:35 | Foschia | 22 | 22 | 100 | 1018 | 10 | N 0 | |
| Ieri h: 22:15 | Foschia | 23 | 22 | 94 | 1018 | 10 | N 0 | |
| Ieri h: 21:55 | Sereno | 23 | 22 | 94 | 1018 | 11 | N 0 | |
| Ieri h: 21:35 | Sereno | 23 | 22 | 94 | 1018 | 13 | N 0 | |
| Ieri h: 21:15 | Sereno | 23 | 22 | 94 | 1018 | 13 | N 0 | |
| Ieri h: 20:55 | Sereno | 23 | 22 | 94 | 1018 | 14 | N 0 | |
| Ieri h: 20:35 | Sereno | 23 | 22 | 94 | 1018 | 14 | N 0 | |
| Ieri h: 20:15 | Sereno | 23 | 22 | 94 | 1017 | 14 | N 0 | |
| Ieri h: 19:55 | Sereno | 24 | 22 | 88 | 1017 | 10 | N 0 | |
| Ieri h: 19:35 | Poco Nuvoloso | 25 | 22 | 83 | 1018 | 10 | N 0 | |
| Ieri h: 19:15 | Molto Nuvoloso | 25 | 22 | 83 | 1018 | 14 | E 11.1 | |
| Ieri h: 18:55 | Nuvoloso | 27 | 22 | 74 | 1017 | 14 | S 11.1 | |
| Ieri h: 18:35 | Molto Nuvoloso | 27 | 22 | 74 | 1018 | 14 | N 0 | |
| Ieri h: 18:15 | Molto Nuvoloso | 27 | 22 | 74 | 1018 | 14 | N 0 | |
| Ieri h: 17:55 | Molto Nuvoloso | 27 | 22 | 74 | 1018 | 14 | S 7.4 | |
| Ieri h: 17:35 | Molto Nuvoloso | 27 | 22 | 74 | 1018 | 14 | S/SO 7.4 | |
| Ieri h: 17:15 | Nuvoloso | 28 | 22 | 69 | 1018 | 14 | N 0 | |
| Ieri h: 16:35 | Sereno | 26 | 22 | 78 | 1018 | 14 | N 0 | |
| Ieri h: 16:15 | Sereno | 27 | 22 | 74 | 1019 | 14 | SO 9.3 | |
| Ieri h: 15:55 | Sereno | 26 | 21 | 73 | 1019 | 14 | N 0 | |
| Ieri h: 15:35 | Sereno | 26 | 21 | 73 | 1019 | 14 | N 0 | |
| Ieri h: 15:15 | Poco Nuvoloso | 25 | 21 | 78 | 1019 | 14 | N 0 | |
| Ieri h: 14:55 | Sereno | 25 | 21 | 78 | 1019 | 14 | N 0 | |
| Ieri h: 14:35 | Sereno | 25 | 20 | 73 | 1019 | 14 | N 0 | |
| Ieri h: 14:15 | Poco Nuvoloso | 24 | 20 | 78 | 1020 | 14 | N 0 | |
| Ieri h: 13:55 | Poco Nuvoloso | 24 | 20 | 78 | 1020 | 14 | N 0 | |
| Ieri h: 13:35 | Poco Nuvoloso | 23 | 20 | 83 | 1020 | 14 | N 0 | |
| Ieri h: 13:15 | Poco Nuvoloso | 23 | 20 | 83 | 1020 | 14 | N/NE 7.4 | |
| Ieri h: 12:55 | Poco Nuvoloso | 23 | 20 | 83 | 1020 | 14 | N 0 | |
| Ieri h: 12:35 | Nuvoloso | 22 | 20 | 88 | 1021 | 14 | N 0 | |
| Ieri h: 12:15 | Nuvoloso | 22 | 20 | 88 | 1021 | 14 | N 0 | |
| Ieri h: 11:55 | Pioggia | 22 | 20 | 88 | 1021 | 13 | N 0 | |
| Ieri h: 11:35 | Pioggia | 21 | 20 | 94 | 1021 | 13 | N 0 | |
| Ieri h: 11:15 | Pioggia | 21 | 20 | 94 | 1021 | 13 | N 0 | |
| Ieri h: 10:15 | Pioviggine | 20 | 19 | 93 | 1020 | 10 | N 0 | |
| Ieri h: 09:55 | Pioggia | 20 | 20 | 100 | 1021 | 5 | N 0 | |
| Ieri h: 09:35 | Pioggia | 20 | 20 | 100 | 1021 | 5 | N 0 | |
| Ieri h: 09:15 | Foschia | 20 | 19 | 93 | 1021 | 6 | N 0 | |
| Ieri h: 08:55 | Pioggia | 19 | 19 | 100 | 1021 | 3 | N 0 | |
| Ieri h: 08:35 | Foschia | 20 | 19 | 93 | 1021 | 8 | N 0 | |
| Ieri h: 08:15 | Foschia | 19 | 19 | 100 | 1021 | 6 | N 0 | |
| Ieri h: 07:55 | Foschia | 19 | 19 | 100 | 1021 | 10 | N 0 | |
| Ieri h: 07:35 | Foschia | 19 | 19 | 100 | 1021 | 6 | N 0 | |
| Ieri h: 07:15 | Foschia | 19 | 19 | 100 | 1020 | 10 | N 0 | |
| Ieri h: 06:55 | Foschia | 19 | 19 | 100 | 1020 | 6 | N 0 | |
| Ieri h: 06:35 | Foschia | 19 | 19 | 100 | 1020 | 10 | N 0 | |



